Location: Kapla
(46.2483°N, 15.0094°E)
Time: 13:32:24
(UTC+00:00)

Cosmos 1943 Rocket - Pass Details

Date: 03 March 2021
Orbit: 811 x 844 km, 71.0° (Epoch: 19 April)

Event Time Altitude Azimuth Distance (km) Brightness Sun altitude
Rises 20:44:35 0° 336° (NNW) 3,414 6.1 -39.2°
Reaches altitude 10° 20:47:08 10° 342° (NNW) 2,474 5.2 -39.5°
Enters shadow 20:48:43 19° 349° (NNW) 1,918 4.4 -39.7°
